Batumi International Airport
UGSB : rendu visible

Aérodrome :











RETROUVEZ-NOUS SUR...

 
LOGIN :

S'inscrire | Disclaimer

   EN    FR    IT 

 









Légende :    VFR   VFR Marginal   IFR   IFR Intensif   IFR Très Intensif
Visi : 
Plafond : 
>= 8 km
>= 3000ft
5 à 8 km
1000 à 3000 ft
1500m à 5 km
500 à 1000 ft
800 à 1500m
200 à 500 ft
< 800m
< 200 ft
Symboles :   Orages  Brouillard  Fortes neiges  Fortes précipitations  Vent > 20 kt







- Altitude de l'aérodrome : 105 ft
- Code IATA : BUS


UGSB - Batumi International

DERNIER METAR :
  • 041600Z 25007KT 9999 FEW022CB SCT026 25/21 Q1013 R13/CLRD70 NOSIG

METARs EXPIRÉS :
  • 041530Z 24007KT 9999 FEW022CB SCT026 25/21 Q1013 R13/CLRD70 NOSIG
  • 041500Z 25007KT 9999 FEW020CB SCT025 25/21 Q1013 R13/CLRD70 NOSIG
  • 041430Z 26008KT 9999 FEW021CB SCT025 25/21 Q1013 R13/CLRD70 NOSIG
  • 041400Z 26008KT 9999 BKN020 25/21 Q1013 R13/CLRD70 NOSIG
  • 041330Z 25008KT 9999 BKN019 26/22 Q1013 R13/CLRD70 NOSIG

TAF TAF UGSB
Valide du 04 à 12h jusqu'au 05 à 12h UTC


041100Z 0412/0512 26009KT 9999 SCT020 TX26/0512Z TN22/0501Z
PROB30
TEMPO 0414/0420 VRB12KT TSRA BKN014CB
BECMG 0418/0420 13010KT
FIR UGGG / Asie



MET'MAP, la Météo Aéronautique d'un coup d'oeil ! - Copyright ORBIFLY Décembre 2007 - Disclaimer

ORBIFLY MET'MAP TEAM :

Programmation & Développement : Alexandra Zaïnal
Conception & Développement : Baudouin d'Aumeries
Co-Programmation & Développement : Marc-Olivier Méhu
Soutien technique & logistique : Manuel Goepfert

Contact : metmap@orbifly.com




SOURCES & CREDITS :

   NOAA       Earth
Advisory